Debrecen, Hungary

4:25 PM CEST on June 27, 2017 (GMT +0200)
Debrecen

Weather History for LHDC - April, 2014

Change the Weather History Date:

Wednesday, April 2, 2014

  Actual Average Record
Temperature  
Mean Temperature 54 °F -  
Max Temperature 65 °F 63 °F - ()
Min Temperature 42 °F 43 °F - ()
Degree Days  
Heating Degree Days 12    
Growing Degree Days 4 (Base 50)    
Moisture  
Dew Point 34 °F    
Average Humidity 44    
Maximum Humidity 76    
Minimum Humidity 18    
Precipitation  
Precipitation 0.00 in 0.06 in - ()
Sea Level Pressure  
Sea Level Pressure 29.92 in    
Wind  
Wind Speed 8 mph ()    
Max Wind Speed 13 mph    
Max Gust Speed -    
Visibility 12.8 miles    
Events      
T = Trace of Precipitation, MM = Missing Value Source: Averaged Metar Reports

Daily Weather History Graph

Daily Weather History Graph

Search for Another Location

Airport or City:

Trip Planner

Search our weather history database for the weather conditions in past years. The results will help you decide how hot, cold, wet, or windy it might be!

Date:

Astronomy

Apr. 02, 2014 Rise Set
Actual Time 6:10 AM CEST 7:04 PM CEST
Civil Twilight 5:39 AM CEST 7:35 PM CEST
Nautical Twilight 5:02 AM CEST 8:12 PM CEST
Astronomical Twilight 4:23 AM CEST 8:52 PM CEST
Moon 7:31 AM CEST (4/2) 10:21 PM CEST (4/2)
Length of Visible Light 13h 55m
Length of Day
12h 53m
Waxing Crescent, 8% of the Moon is Illuminated
Apr 2
Waxing Crescent
Apr 7
First Quarter
Apr 15
Full
Apr 22
Last Quarter
Apr 29
New

Hourly Weather History & Observations

Time (CEST) Temp. Windchill Dew Point Humidity Pressure Visibility Wind Dir Wind Speed Gust Speed Precip Events Conditions
12:00 AM 48 °F - 34 °F 46% 29.89 in - East 6.7 mph - -  
1:00 AM 48 °F - 33 °F 45% 29.90 in - East 8.9 mph - -  
2:00 AM 49 °F - 33 °F 41% 29.91 in - ENE 8.9 mph - -  
3:00 AM 48 °F - 33 °F 44% 29.92 in - ENE 8.9 mph - -  
4:00 AM 44 °F - 33 °F 55% 29.92 in - ENE 6.7 mph - -  
4:45 AM 44.6 °F 39.7 °F 33.8 °F 66% 29.92 in - NE 9.2 mph - N/A   Clear
5:00 AM 44 °F - 34 °F 57% 29.93 in 12 mi NE 8.9 mph - -   Partly Cloudy
5:15 AM 42.8 °F 38.0 °F 33.8 °F 70% 29.92 in - NE 8.1 mph - N/A   Clear
5:45 AM 42.8 °F 37.0 °F 35.6 °F 76% 29.92 in - NE 10.4 mph - N/A   Clear
6:00 AM 44 °F - 35 °F 60% 29.94 in 12 mi NE 8.9 mph - -   Partly Cloudy
6:15 AM 44.6 °F 38.8 °F 35.6 °F 71% 29.92 in - NE 11.5 mph - N/A   Clear
6:45 AM 44.6 °F 39.2 °F 35.6 °F 71% 29.95 in - NE 10.4 mph - N/A   Clear
7:00 AM 44 °F - 35 °F 61% 29.94 in 12 mi NE 11.2 mph - -   Partly Cloudy
7:00 AM - - - N/A% - - NE 11.5 mph - N/A   Clear
7:15 AM 44.6 °F 38.8 °F 35.6 °F 71% 29.95 in - NE 11.5 mph - N/A   Clear
7:45 AM 46.4 °F 41.1 °F 35.6 °F 66% 29.95 in - NE 11.5 mph - N/A   Clear
8:00 AM 46 °F - 35 °F 54% 29.95 in 11 mi NE 11.2 mph - -   Partly Cloudy
8:15 AM 48.2 °F - 35.6 °F 62% 29.95 in - NE 11.5 mph - N/A   Clear
8:45 AM 50.0 °F - 35.6 °F 58% 29.95 in - NE 12.7 mph - N/A   Clear
9:00 AM 50 °F - 35 °F 44% 29.95 in 12 mi NE 11.2 mph - -   Partly Cloudy
9:15 AM 51.8 °F - 35.6 °F 54% 29.95 in - NE 12.7 mph - N/A   Clear
9:45 AM 53.6 °F - 33.8 °F 47% 29.95 in - NE 12.7 mph - N/A   Clear
10:00 AM 54 °F - 33 °F 33% 29.96 in 12 mi NE 11.2 mph - -   Partly Cloudy
10:00 AM - - - N/A% - - NE 12.7 mph - N/A   Clear
10:15 AM 55.4 °F - 33.8 °F 44% 29.95 in - NE 11.5 mph - N/A   Clear
10:45 AM 57.2 °F - 35.6 °F 44% 29.95 in - NNE 10.4 mph - N/A   Clear
11:00 AM 57 °F - 35 °F 32% 29.96 in 11 mi NNE 11.2 mph - -   Partly Cloudy
11:15 AM 59.0 °F - 35.6 °F 42% 29.95 in - NE 9.2 mph - N/A   Clear
11:45 AM 59.0 °F - 37.4 °F 45% 29.95 in - NNE 9.2 mph - N/A   Clear
12:00 PM 60 °F - 37 °F 30% 29.94 in 12 mi NNE 8.9 mph - -   Partly Cloudy
12:15 PM 60.8 °F - 35.6 °F 39% 29.95 in - NNE 10.4 mph - N/A   Clear
12:45 PM 62.6 °F - 33.8 °F 34% 29.95 in - NE 6.9 mph - N/A   Clear
1:00 PM 62 °F - 35 °F 24% 29.93 in 16 mi NE 6.7 mph - -   Partly Cloudy
1:00 PM - - - N/A% - - NE 10.4 mph - N/A   Clear
2:45 PM 64.4 °F - 33.8 °F 32% 29.92 in - NE 4.6 mph - N/A   Clear
3:00 PM 64 °F - 33 °F 20% 29.90 in 22 mi NE 4.5 mph - -   Partly Cloudy
3:15 PM 64.4 °F - 33.8 °F 32% 29.92 in - ENE 3.5 mph - N/A   Clear
3:45 PM 66.2 °F - 32.0 °F 28% 29.89 in - NNE 2.3 mph - N/A   Clear
4:00 PM 66 °F - 33 °F 18% 29.89 in 22 mi NNE 2.2 mph - -   Partly Cloudy
4:00 PM - - - N/A% - - North - - N/A   Unknown
4:15 PM 66.2 °F - 32.0 °F 28% 29.89 in - NNW 3.5 mph - N/A   Clear
4:45 PM 64.4 °F - 32.0 °F 30% 29.89 in - North 3.5 mph - N/A   Clear
5:00 PM 64 °F - 32 °F 19% 29.89 in 22 mi North 4.5 mph - -   Partly Cloudy
5:15 PM 64.4 °F - 32.0 °F 30% 29.89 in - West 2.3 mph - N/A   Clear
5:45 PM 62.6 °F - 33.8 °F 34% 29.89 in - NNW 4.6 mph - N/A   Clear
6:00 PM 63 °F - 34 °F 22% 29.89 in 19 mi NNW 4.5 mph - -   Partly Cloudy
6:45 PM 60.8 °F - 33.8 °F 36% 29.89 in - NNW 4.6 mph - N/A   Clear
7:00 PM 62 °F - 34 °F 23% 29.89 in 16 mi NNW 4.5 mph - -   Partly Cloudy
7:45 PM 57.2 °F - 33.8 °F 41% 29.89 in - NE 2.3 mph - N/A   Clear
8:00 PM 57 °F - 35 °F 31% 29.90 in 12 mi NE 2.2 mph - -   Partly Cloudy
8:15 PM 55.4 °F - 35.6 °F 47% 29.92 in - NE 1.2 mph - N/A   Clear
8:45 PM 51.8 °F - 35.6 °F 54% 29.92 in - ENE 2.3 mph - N/A   Clear
9:00 PM 53 °F - 36 °F 40% 29.91 in 9 mi ENE 2.2 mph - -   Partly Cloudy
10:00 PM 51 °F - 36 °F 44% 29.91 in - ENE 4.5 mph - -  
11:00 PM 49 °F - 35 °F 48% 29.91 in - East 4.5 mph - -